Year,Month,Day,Hour,Minute,Value (Times are PST for temperature in C)
2016,08,13,00,00,22.90
2016,08,13,00,01,22.90
2016,08,13,00,02,22.90
2016,08,13,00,03,22.90
2016,08,13,00,04,22.90
2016,08,13,00,05,22.90
2016,08,13,00,06,22.90
2016,08,13,00,07,22.90
2016,08,13,00,08,22.90
2016,08,13,00,09,22.90
2016,08,13,00,10,22.90
2016,08,13,00,11,22.90
2016,08,13,00,12,22.90
2016,08,13,00,13,22.90
2016,08,13,00,14,22.90
2016,08,13,00,15,22.90
2016,08,13,00,16,22.90
2016,08,13,00,17,22.80
2016,08,13,00,18,22.80
2016,08,13,00,19,22.80
2016,08,13,00,20,22.70
2016,08,13,00,21,22.70
2016,08,13,00,22,22.70
2016,08,13,00,23,22.70
2016,08,13,00,24,22.60
2016,08,13,00,25,22.60
2016,08,13,00,26,22.60
2016,08,13,00,27,22.60
2016,08,13,00,28,22.60
2016,08,13,00,29,22.60
2016,08,13,00,30,22.60
2016,08,13,00,31,22.60
2016,08,13,00,32,22.60
2016,08,13,00,33,22.70
2016,08,13,00,34,22.70
2016,08,13,00,35,22.70
2016,08,13,00,36,22.70
2016,08,13,00,37,22.70
2016,08,13,00,38,22.70
2016,08,13,00,39,22.70
2016,08,13,00,40,22.70
2016,08,13,00,41,22.60
2016,08,13,00,42,22.60
2016,08,13,00,43,22.60
2016,08,13,00,44,22.60
2016,08,13,00,45,22.50
2016,08,13,00,46,22.50
2016,08,13,00,47,22.50
2016,08,13,00,48,22.40
2016,08,13,00,49,22.40
2016,08,13,00,50,22.40
2016,08,13,00,51,22.40
2016,08,13,00,52,22.40
2016,08,13,00,53,22.40
2016,08,13,00,54,22.30
2016,08,13,00,55,22.30
2016,08,13,00,56,22.30
2016,08,13,00,57,22.30
2016,08,13,00,58,22.20
2016,08,13,00,59,22.20
2016,08,13,01,00,22.20
2016,08,13,01,01,22.20
2016,08,13,01,02,22.10
2016,08,13,01,03,22.10
2016,08,13,01,04,22.10
2016,08,13,01,05,22.10
2016,08,13,01,06,22.00
2016,08,13,01,07,22.00
2016,08,13,01,08,21.90
2016,08,13,01,09,21.90
2016,08,13,01,10,21.90
2016,08,13,01,11,21.80
2016,08,13,01,12,21.80
2016,08,13,01,13,21.80
2016,08,13,01,14,21.70
2016,08,13,01,15,21.70
2016,08,13,01,16,21.70
2016,08,13,01,17,21.60
2016,08,13,01,18,21.60
2016,08,13,01,19,21.60
2016,08,13,01,20,21.60
2016,08,13,01,21,21.60
2016,08,13,01,22,21.60
2016,08,13,01,23,21.60
2016,08,13,01,24,21.60
2016,08,13,01,25,21.60
2016,08,13,01,26,21.60
2016,08,13,01,27,21.60
2016,08,13,01,28,21.60
2016,08,13,01,29,21.60
2016,08,13,01,30,21.60
2016,08,13,01,31,21.60
2016,08,13,01,32,21.60
2016,08,13,01,33,21.60
2016,08,13,01,34,21.60
2016,08,13,01,35,21.60
2016,08,13,01,36,21.60
2016,08,13,01,37,21.60
2016,08,13,01,38,21.60
2016,08,13,01,39,21.60
2016,08,13,01,40,21.60
2016,08,13,01,41,21.70
2016,08,13,01,42,21.70
2016,08,13,01,43,21.70
2016,08,13,01,44,21.70
2016,08,13,01,45,21.70
2016,08,13,01,46,21.70
2016,08,13,01,47,21.70
2016,08,13,01,48,21.70
2016,08,13,01,49,21.70
2016,08,13,01,50,21.70
2016,08,13,01,51,21.70
2016,08,13,01,52,21.70
2016,08,13,01,53,21.70
2016,08,13,01,54,21.70
2016,08,13,01,55,21.70
2016,08,13,01,56,21.60
2016,08,13,01,57,21.60
2016,08,13,01,58,21.60
2016,08,13,01,59,21.60
2016,08,13,02,00,21.60
2016,08,13,02,01,21.60
2016,08,13,02,02,21.60
2016,08,13,02,03,21.60
2016,08,13,02,04,21.60
2016,08,13,02,05,21.60
2016,08,13,02,06,21.70
2016,08,13,02,07,21.70
2016,08,13,02,08,21.80
2016,08,13,02,09,21.80
2016,08,13,02,10,21.90
2016,08,13,02,11,21.90
2016,08,13,02,12,21.90
2016,08,13,02,13,21.90
2016,08,13,02,14,21.90
2016,08,13,02,15,21.90
2016,08,13,02,16,21.90
2016,08,13,02,17,21.80
2016,08,13,02,18,21.80
2016,08,13,02,19,21.80
2016,08,13,02,20,21.80
2016,08,13,02,21,21.80
2016,08,13,02,22,21.70
2016,08,13,02,23,21.70
2016,08,13,02,24,21.70
2016,08,13,02,25,21.70
2016,08,13,02,26,21.60
2016,08,13,02,27,21.60
2016,08,13,02,28,21.60
2016,08,13,02,29,21.60
2016,08,13,02,30,21.60
2016,08,13,02,31,21.60
2016,08,13,02,32,21.60
2016,08,13,02,33,21.60
2016,08,13,02,34,21.60
2016,08,13,02,35,21.60
2016,08,13,02,36,21.60
2016,08,13,02,37,21.60
2016,08,13,02,38,21.40
2016,08,13,02,39,21.40
2016,08,13,02,40,21.40
2016,08,13,02,41,21.30
2016,08,13,02,42,21.30
2016,08,13,02,43,21.30
2016,08,13,02,44,21.30
2016,08,13,02,45,21.30
2016,08,13,02,46,21.30
2016,08,13,02,47,21.30
2016,08,13,02,48,21.30
2016,08,13,02,49,21.30
2016,08,13,02,50,21.30
2016,08,13,02,51,21.30
2016,08,13,02,52,21.30
2016,08,13,02,53,21.30
2016,08,13,02,54,21.30
2016,08,13,02,55,21.30
2016,08,13,02,56,21.30
2016,08,13,02,57,21.30
2016,08,13,02,58,21.30
2016,08,13,02,59,21.30
2016,08,13,03,00,21.30
2016,08,13,03,01,21.20
2016,08,13,03,02,21.20
2016,08,13,03,03,21.20
2016,08,13,03,04,21.10
2016,08,13,03,05,21.10
2016,08,13,03,06,21.10
2016,08,13,03,07,21.00
2016,08,13,03,08,21.00
2016,08,13,03,09,20.90
2016,08,13,03,10,20.90
2016,08,13,03,11,20.90
2016,08,13,03,12,20.80
2016,08,13,03,13,20.80
2016,08,13,03,14,20.80
2016,08,13,03,15,20.80
2016,08,13,03,16,20.70
2016,08,13,03,17,20.70
2016,08,13,03,18,20.70
2016,08,13,03,19,20.70
2016,08,13,03,20,20.60
2016,08,13,03,21,20.60
2016,08,13,03,22,20.60
2016,08,13,03,23,20.60
2016,08,13,03,24,20.60
2016,08,13,03,25,20.60
2016,08,13,03,26,20.60
2016,08,13,03,27,20.60
2016,08,13,03,28,20.60
2016,08,13,03,29,20.50
2016,08,13,03,30,20.50
2016,08,13,03,31,20.50
2016,08,13,03,32,20.50
2016,08,13,03,33,20.50
2016,08,13,03,34,20.50
2016,08,13,03,35,20.40
2016,08,13,03,36,20.40
2016,08,13,03,37,20.40
2016,08,13,03,38,20.40
2016,08,13,03,39,20.30
2016,08,13,03,40,20.30
2016,08,13,03,41,20.30
2016,08,13,03,42,20.30
2016,08,13,03,43,20.20
2016,08,13,03,44,20.20
2016,08,13,03,45,20.20
2016,08,13,03,46,20.20
2016,08,13,03,47,20.20
2016,08,13,03,48,20.20
2016,08,13,03,49,20.20
2016,08,13,03,50,20.10
2016,08,13,03,51,20.10
2016,08,13,03,52,20.10
2016,08,13,03,53,20.10
2016,08,13,03,54,20.00
2016,08,13,03,55,19.90
2016,08,13,03,56,19.90
2016,08,13,03,57,19.90
2016,08,13,03,58,19.90
2016,08,13,03,59,19.90
2016,08,13,04,00,19.90
2016,08,13,04,01,19.90
2016,08,13,04,02,19.80
2016,08,13,04,03,19.80
2016,08,13,04,04,19.80
2016,08,13,04,05,19.70
2016,08,13,04,06,19.70
2016,08,13,04,07,19.60
2016,08,13,04,08,19.60
2016,08,13,04,09,19.60
2016,08,13,04,10,19.50
2016,08,13,04,11,19.50
2016,08,13,04,12,19.50
2016,08,13,04,13,19.40
2016,08,13,04,14,19.40
2016,08,13,04,15,19.40
2016,08,13,04,16,19.40
2016,08,13,04,17,19.40
2016,08,13,04,18,19.40
2016,08,13,04,19,19.40
2016,08,13,04,20,19.40
2016,08,13,04,21,19.40
2016,08,13,04,22,19.40
2016,08,13,04,23,19.40
2016,08,13,04,24,19.40
2016,08,13,04,25,19.50
2016,08,13,04,26,19.50
2016,08,13,04,27,19.50
2016,08,13,04,28,19.40
2016,08,13,04,29,19.40
2016,08,13,04,30,19.40
2016,08,13,04,31,19.40
2016,08,13,04,32,19.40
2016,08,13,04,33,19.40
2016,08,13,04,34,19.40
2016,08,13,04,35,19.30
2016,08,13,04,36,19.30
2016,08,13,04,37,19.30
2016,08,13,04,38,19.30
2016,08,13,04,39,19.30
2016,08,13,04,40,19.30
2016,08,13,04,41,19.20
2016,08,13,04,42,19.20
2016,08,13,04,43,19.20
2016,08,13,04,44,19.20
2016,08,13,04,45,19.20
2016,08,13,04,46,19.20
2016,08,13,04,47,19.20
2016,08,13,04,48,19.20
2016,08,13,04,49,19.20
2016,08,13,04,50,19.20
2016,08,13,04,51,19.20
2016,08,13,04,52,19.20
2016,08,13,04,53,19.10
2016,08,13,04,54,19.10
2016,08,13,04,55,19.10
2016,08,13,04,56,19.10
2016,08,13,04,57,19.10
2016,08,13,04,58,19.10
2016,08,13,04,59,19.10
2016,08,13,05,00,19.10
2016,08,13,05,01,19.10
2016,08,13,05,02,19.10
2016,08,13,05,03,19.00
2016,08,13,05,04,18.90
2016,08,13,05,05,18.90
2016,08,13,05,06,18.90
2016,08,13,05,07,18.90
2016,08,13,05,08,18.80
2016,08,13,05,09,18.80
2016,08,13,05,10,18.70
2016,08,13,05,11,18.70
2016,08,13,05,12,18.60
2016,08,13,05,13,18.60
2016,08,13,05,14,18.60
2016,08,13,05,15,18.50
2016,08,13,05,16,18.50
2016,08,13,05,17,18.40
2016,08,13,05,18,18.40
2016,08,13,05,19,18.30
2016,08,13,05,20,18.30
2016,08,13,05,21,18.30
2016,08,13,05,22,18.30
2016,08,13,05,23,18.20
2016,08,13,05,24,18.20
2016,08,13,05,25,18.20
2016,08,13,05,26,18.20
2016,08,13,05,27,18.20
2016,08,13,05,28,18.20
2016,08,13,05,29,18.20
2016,08,13,05,30,18.20
2016,08,13,05,31,18.20
2016,08,13,05,32,18.20
2016,08,13,05,33,18.20
2016,08,13,05,34,18.20
2016,08,13,05,35,18.20
2016,08,13,05,36,18.20
2016,08,13,05,37,18.20
2016,08,13,05,38,18.20
2016,08,13,05,39,18.20
2016,08,13,05,40,18.20
2016,08,13,05,41,18.20
2016,08,13,05,42,18.20
2016,08,13,05,43,18.20
2016,08,13,05,44,18.20
2016,08,13,05,45,18.20
2016,08,13,05,46,18.20
2016,08,13,05,47,18.20
2016,08,13,05,48,18.20
2016,08,13,05,49,18.20
2016,08,13,05,50,18.20
2016,08,13,05,51,18.20
2016,08,13,05,52,18.20
2016,08,13,05,53,18.20
2016,08,13,05,54,18.20
2016,08,13,05,55,18.20
2016,08,13,05,56,18.20
2016,08,13,05,57,18.20
2016,08,13,05,58,18.20
2016,08,13,05,59,18.20
2016,08,13,06,00,18.20
2016,08,13,06,01,18.20
2016,08,13,06,02,18.20
2016,08,13,06,03,18.20
2016,08,13,06,04,18.20
2016,08,13,06,05,18.20
2016,08,13,06,06,18.20
2016,08,13,06,07,18.20
2016,08,13,06,08,18.20
2016,08,13,06,09,18.20
2016,08,13,06,10,18.10
2016,08,13,06,11,18.10
2016,08,13,06,12,18.10
2016,08,13,06,13,18.10
2016,08,13,06,14,18.10
2016,08,13,06,15,18.10
2016,08,13,06,16,18.00
2016,08,13,06,17,17.90
2016,08,13,06,18,18.00
2016,08,13,06,19,18.10
2016,08,13,06,20,18.10
2016,08,13,06,21,18.10
2016,08,13,06,22,18.20
2016,08,13,06,23,18.20
2016,08,13,06,24,18.20
2016,08,13,06,25,18.30
2016,08,13,06,26,18.30
2016,08,13,06,27,18.40
2016,08,13,06,28,18.40
2016,08,13,06,29,18.40
2016,08,13,06,30,18.40
2016,08,13,06,31,18.40
2016,08,13,06,32,18.50
2016,08,13,06,33,18.50
2016,08,13,06,34,18.50
2016,08,13,06,35,18.50
2016,08,13,06,36,18.40
2016,08,13,06,37,18.40
2016,08,13,06,38,18.40
2016,08,13,06,39,18.40
2016,08,13,06,40,18.40
2016,08,13,06,41,18.30
2016,08,13,06,42,18.30
2016,08,13,06,43,18.30
2016,08,13,06,44,18.30
2016,08,13,06,45,18.30
2016,08,13,06,46,18.30
2016,08,13,06,47,18.30
2016,08,13,06,48,18.30
2016,08,13,06,49,18.30
2016,08,13,06,50,18.30
2016,08,13,06,51,18.30
2016,08,13,06,52,18.30
2016,08,13,06,53,18.30
2016,08,13,06,54,18.40
2016,08,13,06,55,18.40
2016,08,13,06,56,18.40
2016,08,13,06,57,18.40
2016,08,13,06,58,18.40
2016,08,13,06,59,18.40
2016,08,13,07,00,18.40
2016,08,13,07,01,18.40
2016,08,13,07,02,18.30
2016,08,13,07,03,18.30
2016,08,13,07,04,18.30
2016,08,13,07,05,18.30
2016,08,13,07,06,18.30
2016,08,13,07,07,18.30
2016,08,13,07,08,18.40
2016,08,13,07,09,18.40
2016,08,13,07,10,18.40
2016,08,13,07,11,18.40
2016,08,13,07,12,18.40
2016,08,13,07,13,18.50
2016,08,13,07,14,18.50
2016,08,13,07,15,18.50
2016,08,13,07,16,18.60
2016,08,13,07,17,18.60
2016,08,13,07,18,18.60
2016,08,13,07,19,18.60
2016,08,13,07,20,18.60
2016,08,13,07,21,18.60
2016,08,13,07,22,18.60
2016,08,13,07,23,18.60
2016,08,13,07,24,18.60
2016,08,13,07,25,18.60
2016,08,13,07,26,18.60
2016,08,13,07,27,18.70
2016,08,13,07,28,18.70
2016,08,13,07,29,18.70
2016,08,13,07,30,18.70
2016,08,13,07,31,18.80
2016,08,13,07,32,18.80
2016,08,13,07,33,18.80
2016,08,13,07,34,18.90
2016,08,13,07,35,18.90
2016,08,13,07,36,18.90
2016,08,13,07,37,18.90
2016,08,13,07,38,18.90
2016,08,13,07,39,19.00
2016,08,13,07,40,19.10
2016,08,13,07,41,19.10
2016,08,13,07,42,19.10
2016,08,13,07,43,19.10
2016,08,13,07,44,19.10
2016,08,13,07,45,19.10
2016,08,13,07,46,19.20
2016,08,13,07,47,19.30
2016,08,13,07,48,19.30
2016,08,13,07,49,19.30
2016,08,13,07,50,19.30
2016,08,13,07,51,19.40
2016,08,13,07,52,19.40
2016,08,13,07,53,19.40
2016,08,13,07,54,19.40
2016,08,13,07,55,19.50
2016,08,13,07,56,19.50
2016,08,13,07,57,19.60
2016,08,13,07,58,19.60
2016,08,13,07,59,19.70
2016,08,13,08,00,19.70
2016,08,13,08,01,19.70
2016,08,13,08,02,19.80
2016,08,13,08,03,19.80
2016,08,13,08,04,19.80
2016,08,13,08,05,19.80
2016,08,13,08,06,19.80
2016,08,13,08,07,19.80
2016,08,13,08,08,19.80
2016,08,13,08,09,19.80
2016,08,13,08,10,19.90
2016,08,13,08,11,19.90
2016,08,13,08,12,19.90
2016,08,13,08,13,19.90
2016,08,13,08,14,19.90
2016,08,13,08,15,19.90
2016,08,13,08,16,19.90
2016,08,13,08,17,19.80
2016,08,13,08,18,19.80
2016,08,13,08,19,19.80
2016,08,13,08,20,19.80
2016,08,13,08,21,19.80
2016,08,13,08,22,19.80
2016,08,13,08,23,19.80
2016,08,13,08,24,19.80
2016,08,13,08,25,19.80
2016,08,13,08,26,19.70
2016,08,13,08,27,19.70
2016,08,13,08,28,19.70
2016,08,13,08,29,19.70
2016,08,13,08,30,19.80
2016,08,13,08,31,19.80
2016,08,13,08,32,19.80
2016,08,13,08,33,19.80
2016,08,13,08,34,19.90
2016,08,13,08,35,19.90
2016,08,13,08,36,19.90
2016,08,13,08,37,19.90
2016,08,13,08,38,20.00
2016,08,13,08,39,20.10
2016,08,13,08,40,20.10
2016,08,13,08,41,20.20
2016,08,13,08,42,20.20
2016,08,13,08,43,20.20
2016,08,13,08,44,20.20
2016,08,13,08,45,20.20
2016,08,13,08,46,20.20
2016,08,13,08,47,20.20
2016,08,13,08,48,20.30
2016,08,13,08,49,20.40
2016,08,13,08,50,20.40
2016,08,13,08,51,20.40
2016,08,13,08,52,20.40
2016,08,13,08,53,20.50
2016,08,13,08,54,20.50
2016,08,13,08,55,20.50
2016,08,13,08,56,20.50
2016,08,13,08,57,20.50
2016,08,13,08,58,20.50
2016,08,13,08,59,20.50
2016,08,13,09,00,20.50
2016,08,13,09,01,20.50
2016,08,13,09,02,20.50
2016,08,13,09,03,20.50
2016,08,13,09,04,20.50
2016,08,13,09,05,20.50
2016,08,13,09,06,20.60
2016,08,13,09,07,20.60
2016,08,13,09,08,20.70
2016,08,13,09,09,20.70
2016,08,13,09,10,20.70
2016,08,13,09,11,20.80
2016,08,13,09,12,20.80
2016,08,13,09,13,20.90
2016,08,13,09,14,20.90
2016,08,13,09,15,20.90
2016,08,13,09,16,20.90
2016,08,13,09,17,20.90
2016,08,13,09,18,20.90
2016,08,13,09,19,20.90
2016,08,13,09,20,20.80
2016,08,13,09,21,20.80
2016,08,13,09,22,20.80
2016,08,13,09,23,20.90
2016,08,13,09,24,20.90
2016,08,13,09,25,21.00
2016,08,13,09,26,21.00
2016,08,13,09,27,21.10
2016,08,13,09,28,21.20
2016,08,13,09,29,21.30
2016,08,13,09,30,21.30
2016,08,13,09,31,21.30
2016,08,13,09,32,21.30
2016,08,13,09,33,21.30
2016,08,13,09,34,21.30
2016,08,13,09,35,21.30
2016,08,13,09,36,21.30
2016,08,13,09,37,21.30
2016,08,13,09,38,21.30
2016,08,13,09,39,21.30
2016,08,13,09,40,21.30
2016,08,13,09,41,21.30
2016,08,13,09,42,21.30
2016,08,13,09,43,21.40
2016,08,13,09,44,21.40
2016,08,13,09,45,21.40
2016,08,13,09,46,21.40
2016,08,13,09,47,21.40
2016,08,13,09,48,21.60
2016,08,13,09,49,21.60
2016,08,13,09,50,21.70
2016,08,13,09,51,21.70
2016,08,13,09,52,21.80
2016,08,13,09,53,21.90
2016,08,13,09,54,22.00
2016,08,13,09,55,22.00
2016,08,13,09,56,22.00
2016,08,13,09,57,22.00
2016,08,13,09,58,22.10
2016,08,13,09,59,22.20
2016,08,13,10,00,22.30
2016,08,13,10,01,22.30
2016,08,13,10,02,22.30
2016,08,13,10,03,22.40
2016,08,13,10,04,22.40
2016,08,13,10,05,22.50
2016,08,13,10,06,22.60
2016,08,13,10,07,22.60
2016,08,13,10,08,22.60
2016,08,13,10,09,22.60
2016,08,13,10,10,22.60
2016,08,13,10,11,22.60
2016,08,13,10,12,22.60
2016,08,13,10,13,22.50
2016,08,13,10,14,22.40
2016,08,13,10,15,22.30
2016,08,13,10,16,22.20
2016,08,13,10,17,22.10
2016,08,13,10,18,22.00
2016,08,13,10,19,21.90
2016,08,13,10,20,21.70
2016,08,13,10,21,21.70
2016,08,13,10,22,21.60
2016,08,13,10,23,21.60
2016,08,13,10,24,21.50
2016,08,13,10,25,21.40
2016,08,13,10,26,21.40
2016,08,13,10,27,21.60
2016,08,13,10,28,21.60
2016,08,13,10,29,21.60
2016,08,13,10,30,21.60
2016,08,13,10,31,21.60
2016,08,13,10,32,21.60
2016,08,13,10,33,21.70
2016,08,13,10,34,21.70
2016,08,13,10,35,21.70
2016,08,13,10,36,21.70
2016,08,13,10,37,21.90
2016,08,13,10,38,21.90
2016,08,13,10,39,22.00
2016,08,13,10,40,22.10
2016,08,13,10,41,22.20
2016,08,13,10,42,22.30
2016,08,13,10,43,22.40
2016,08,13,10,44,22.50
2016,08,13,10,45,22.50
2016,08,13,10,46,22.60
2016,08,13,10,47,22.60
2016,08,13,10,48,22.70
2016,08,13,10,49,22.70
2016,08,13,10,50,22.80
2016,08,13,10,51,22.80
2016,08,13,10,52,22.90
2016,08,13,10,53,22.90
2016,08,13,10,54,22.90
2016,08,13,10,55,22.90
2016,08,13,10,56,22.90
2016,08,13,10,57,22.90
2016,08,13,10,58,22.90
2016,08,13,10,59,22.90
2016,08,13,11,00,22.90
2016,08,13,11,01,22.80
2016,08,13,11,02,22.80
2016,08,13,11,03,22.80
2016,08,13,11,04,22.80
2016,08,13,11,05,22.90
2016,08,13,11,06,22.90
2016,08,13,11,07,22.90
2016,08,13,11,08,22.90
2016,08,13,11,09,22.80
2016,08,13,11,10,22.80
2016,08,13,11,11,22.90
2016,08,13,11,12,22.90
2016,08,13,11,13,22.90
2016,08,13,11,14,22.80
2016,08,13,11,15,22.80
2016,08,13,11,16,22.70
2016,08,13,11,17,22.70
2016,08,13,11,18,22.70
2016,08,13,11,19,22.60
2016,08,13,11,20,22.60
2016,08,13,11,21,22.60
2016,08,13,11,22,22.50
2016,08,13,11,23,22.50
2016,08,13,11,24,22.50
2016,08,13,11,25,22.50
2016,08,13,11,26,22.50
2016,08,13,11,27,22.50
2016,08,13,11,28,22.60
2016,08,13,11,29,22.60
2016,08,13,11,30,22.60
2016,08,13,11,31,22.60
2016,08,13,11,32,22.60
2016,08,13,11,33,22.60
2016,08,13,11,34,22.50
2016,08,13,11,35,22.50
2016,08,13,11,36,22.60
2016,08,13,11,37,22.60
2016,08,13,11,38,22.70
2016,08,13,11,39,22.70
2016,08,13,11,40,22.70
2016,08,13,11,41,22.80
2016,08,13,11,42,22.90
2016,08,13,11,43,22.90
2016,08,13,11,44,23.10
2016,08,13,11,45,23.10
2016,08,13,11,46,23.10
2016,08,13,11,47,23.10
2016,08,13,11,48,23.10
2016,08,13,11,49,23.20
2016,08,13,11,50,23.30
2016,08,13,11,51,23.30
2016,08,13,11,52,23.30
2016,08,13,11,53,23.20
2016,08,13,11,54,23.10
2016,08,13,11,55,23.10
2016,08,13,11,56,23.10
2016,08,13,11,57,23.10
2016,08,13,11,58,23.10
2016,08,13,11,59,23.20
2016,08,13,12,00,23.10
2016,08,13,12,01,23.10
2016,08,13,12,02,23.30
2016,08,13,12,03,23.30
2016,08,13,12,04,23.30
2016,08,13,12,05,23.30
2016,08,13,12,06,23.30
2016,08,13,12,07,23.20
2016,08,13,12,08,23.20
2016,08,13,12,09,23.20
2016,08,13,12,10,23.10
2016,08,13,12,11,23.10
2016,08,13,12,12,23.10
2016,08,13,12,13,23.20
2016,08,13,12,14,23.20
2016,08,13,12,15,23.20
2016,08,13,12,16,23.20
2016,08,13,12,17,23.20
2016,08,13,12,18,23.20
2016,08,13,12,19,23.30
2016,08,13,12,20,23.30
2016,08,13,12,21,23.30
2016,08,13,12,22,23.30
2016,08,13,12,23,23.20
2016,08,13,12,24,23.10
2016,08,13,12,25,23.10
2016,08,13,12,26,23.20
2016,08,13,12,27,23.20
2016,08,13,12,28,23.20
2016,08,13,12,29,23.20
2016,08,13,12,30,23.20
2016,08,13,12,31,23.20
2016,08,13,12,32,23.20
2016,08,13,12,33,23.10
2016,08,13,12,34,23.10
2016,08,13,12,35,23.10
2016,08,13,12,36,23.10
2016,08,13,12,37,23.10
2016,08,13,12,38,23.10
2016,08,13,12,39,23.10
2016,08,13,12,40,23.10
2016,08,13,12,41,23.10
2016,08,13,12,42,23.10
2016,08,13,12,43,23.00
2016,08,13,12,44,22.90
2016,08,13,12,45,23.10
2016,08,13,12,46,23.20
2016,08,13,12,47,23.30
2016,08,13,12,48,23.30
2016,08,13,12,49,23.30
2016,08,13,12,50,23.30
2016,08,13,12,51,23.40
2016,08,13,12,52,23.40
2016,08,13,12,53,23.40
2016,08,13,12,54,23.30
2016,08,13,12,55,23.30
2016,08,13,12,56,23.30
2016,08,13,12,57,23.30
2016,08,13,12,58,23.40
2016,08,13,12,59,23.40
2016,08,13,13,00,23.40
2016,08,13,13,01,23.30
2016,08,13,13,02,23.40
2016,08,13,13,03,23.50
2016,08,13,13,04,23.60
2016,08,13,13,05,23.60
2016,08,13,13,06,23.60
2016,08,13,13,07,23.70
2016,08,13,13,08,23.70
2016,08,13,13,09,23.70
2016,08,13,13,10,23.70
2016,08,13,13,11,23.70
2016,08,13,13,12,23.70
2016,08,13,13,13,23.80
2016,08,13,13,14,23.80
2016,08,13,13,15,23.90
2016,08,13,13,16,23.90
2016,08,13,13,17,24.10
2016,08,13,13,18,24.00
2016,08,13,13,19,24.10
2016,08,13,13,20,24.10
2016,08,13,13,21,24.10
2016,08,13,13,22,24.10
2016,08,13,13,23,24.20
2016,08,13,13,24,24.10
2016,08,13,13,25,24.10
2016,08,13,13,26,24.10
2016,08,13,13,27,24.20
2016,08,13,13,28,24.20
2016,08,13,13,29,24.30
2016,08,13,13,30,24.30
2016,08,13,13,31,24.30
2016,08,13,13,32,24.40
2016,08,13,13,33,24.40
2016,08,13,13,34,24.40
2016,08,13,13,35,24.40
2016,08,13,13,36,24.40
2016,08,13,13,37,24.30
2016,08,13,13,38,24.30
2016,08,13,13,39,24.40
2016,08,13,13,40,24.40
2016,08,13,13,41,24.50
2016,08,13,13,42,24.60
2016,08,13,13,43,24.60
2016,08,13,13,44,24.60
2016,08,13,13,45,24.70
2016,08,13,13,46,24.70
2016,08,13,13,47,24.70
2016,08,13,13,48,24.80
2016,08,13,13,49,24.80
2016,08,13,13,50,24.90
2016,08,13,13,51,24.90
2016,08,13,13,52,24.80
2016,08,13,13,53,24.80
2016,08,13,13,54,24.80
2016,08,13,13,55,24.70
2016,08,13,13,56,24.70
2016,08,13,13,57,24.80
2016,08,13,13,58,24.80
2016,08,13,13,59,24.80
2016,08,13,14,00,24.80
2016,08,13,14,01,24.80
2016,08,13,14,02,24.90
2016,08,13,14,03,24.90
2016,08,13,14,04,24.90
2016,08,13,14,05,24.90
2016,08,13,14,06,25.00
2016,08,13,14,07,25.00
2016,08,13,14,08,25.00
2016,08,13,14,09,25.00
2016,08,13,14,10,25.00
2016,08,13,14,11,25.00
2016,08,13,14,12,25.10
2016,08,13,14,13,25.20
2016,08,13,14,14,25.30
2016,08,13,14,15,25.40
2016,08,13,14,16,25.30
2016,08,13,14,17,25.20
2016,08,13,14,18,25.30
2016,08,13,14,19,25.30
2016,08,13,14,20,25.30
2016,08,13,14,21,25.20
2016,08,13,14,22,25.20
2016,08,13,14,23,25.20
2016,08,13,14,24,25.30
2016,08,13,14,25,25.40
2016,08,13,14,26,25.50
2016,08,13,14,27,25.50
2016,08,13,14,28,25.50
2016,08,13,14,29,25.60
2016,08,13,14,30,25.60
2016,08,13,14,31,25.60
2016,08,13,14,32,25.70
2016,08,13,14,33,25.70
2016,08,13,14,34,25.80
2016,08,13,14,35,25.90
2016,08,13,14,36,26.00
2016,08,13,14,37,26.00
2016,08,13,14,38,26.10
2016,08,13,14,39,26.10
2016,08,13,14,40,26.10
2016,08,13,14,41,26.20
2016,08,13,14,42,26.20
2016,08,13,14,43,26.10
2016,08,13,14,44,26.10
2016,08,13,14,45,26.10
2016,08,13,14,46,26.20
2016,08,13,14,47,26.20
2016,08,13,14,48,26.10
2016,08,13,14,49,26.10
2016,08,13,14,50,26.10
2016,08,13,14,51,26.00
2016,08,13,14,52,26.00
2016,08,13,14,53,26.10
2016,08,13,14,54,26.10
2016,08,13,14,55,26.20
2016,08,13,14,56,26.20
2016,08,13,14,57,26.20
2016,08,13,14,58,26.20
2016,08,13,14,59,26.20
2016,08,13,15,00,26.10
2016,08,13,15,01,26.10
2016,08,13,15,02,26.00
2016,08,13,15,03,26.00
2016,08,13,15,04,26.00
2016,08,13,15,05,25.90
2016,08,13,15,06,25.90
2016,08,13,15,07,25.80
2016,08,13,15,08,25.80
2016,08,13,15,09,25.90
2016,08,13,15,10,25.90
2016,08,13,15,11,25.90
2016,08,13,15,12,25.90
2016,08,13,15,13,26.00
2016,08,13,15,14,26.00
2016,08,13,15,15,26.10
2016,08,13,15,16,26.10
2016,08,13,15,17,26.20
2016,08,13,15,18,26.20
2016,08,13,15,19,26.20
2016,08,13,15,20,26.20
2016,08,13,15,21,26.20
2016,08,13,15,22,26.10
2016,08,13,15,23,26.10
2016,08,13,15,24,26.10
2016,08,13,15,25,26.20
2016,08,13,15,26,26.20
2016,08,13,15,27,26.20
2016,08,13,15,28,26.30
2016,08,13,15,29,26.30
2016,08,13,15,30,26.30
2016,08,13,15,31,26.40
2016,08,13,15,32,26.40
2016,08,13,15,33,26.30
2016,08,13,15,34,26.30
2016,08,13,15,35,26.30
2016,08,13,15,36,26.40
2016,08,13,15,37,26.30
2016,08,13,15,38,26.30
2016,08,13,15,39,26.30
2016,08,13,15,40,26.30
2016,08,13,15,41,26.30
2016,08,13,15,42,26.20
2016,08,13,15,43,26.20
2016,08,13,15,44,26.10
2016,08,13,15,45,26.00
2016,08,13,15,46,26.00
2016,08,13,15,47,26.00
2016,08,13,15,48,26.10
2016,08,13,15,49,26.20
2016,08,13,15,50,26.20
2016,08,13,15,51,26.30
2016,08,13,15,52,26.30
2016,08,13,15,53,26.40
2016,08,13,15,54,26.40
2016,08,13,15,55,26.40
2016,08,13,15,56,26.60
2016,08,13,15,57,26.60
2016,08,13,15,58,26.40
2016,08,13,15,59,26.40
2016,08,13,16,00,26.40
2016,08,13,16,01,26.50
2016,08,13,16,02,26.60
2016,08,13,16,03,26.60
2016,08,13,16,04,26.60
2016,08,13,16,05,26.60
2016,08,13,16,06,26.60
2016,08,13,16,07,26.60
2016,08,13,16,08,26.60
2016,08,13,16,09,26.60
2016,08,13,16,10,26.60
2016,08,13,16,11,26.70
2016,08,13,16,12,26.70
2016,08,13,16,13,26.70
2016,08,13,16,14,26.70
2016,08,13,16,15,26.70
2016,08,13,16,16,26.70
2016,08,13,16,17,26.70
2016,08,13,16,18,26.70
2016,08,13,16,19,26.60
2016,08,13,16,20,26.60
2016,08,13,16,21,26.60
2016,08,13,16,22,26.60
2016,08,13,16,23,26.60
2016,08,13,16,24,26.60
2016,08,13,16,25,26.60
2016,08,13,16,26,26.50
2016,08,13,16,27,26.40
2016,08,13,16,28,26.40
2016,08,13,16,29,26.40
2016,08,13,16,30,26.40
2016,08,13,16,31,26.60
2016,08,13,16,32,26.60
2016,08,13,16,33,26.70
2016,08,13,16,34,26.80
2016,08,13,16,35,26.80
2016,08,13,16,36,26.90
2016,08,13,16,37,27.00
2016,08,13,16,38,27.10
2016,08,13,16,39,27.10
2016,08,13,16,40,27.10
2016,08,13,16,41,27.10
2016,08,13,16,42,27.10
2016,08,13,16,43,27.10
2016,08,13,16,44,27.10
2016,08,13,16,45,27.10
2016,08,13,16,46,27.20
2016,08,13,16,47,27.20
2016,08,13,16,48,27.30
2016,08,13,16,49,27.30
2016,08,13,16,50,27.30
2016,08,13,16,51,27.30
2016,08,13,16,52,27.30
2016,08,13,16,53,27.30
2016,08,13,16,54,27.30
2016,08,13,16,55,27.30
2016,08,13,16,56,27.30
2016,08,13,16,57,27.30
2016,08,13,16,58,27.30
2016,08,13,16,59,27.30
2016,08,13,17,00,27.30
2016,08,13,17,01,27.30
2016,08,13,17,02,27.30
2016,08,13,17,03,27.30
2016,08,13,17,04,27.30
2016,08,13,17,05,27.30
2016,08,13,17,06,27.30
2016,08,13,17,07,27.30
2016,08,13,17,08,27.30
2016,08,13,17,09,27.20
2016,08,13,17,10,27.20
2016,08,13,17,11,27.10
2016,08,13,17,12,27.10
2016,08,13,17,13,26.90
2016,08,13,17,14,26.90
2016,08,13,17,15,26.90
2016,08,13,17,16,26.80
2016,08,13,17,17,26.80
2016,08,13,17,18,26.80
2016,08,13,17,19,26.80